Regional Weather Roundup
Issued by NWS Midland/Odessa, TX

Home | Current Version | Previous Version | Text Only | Print | Product List | Glossary On
Versions: 1 2 3 4 5 6 7 8 9 10 11 12 13 14 15 16 17 18 19 20 21 22 23 24 25 26 27 28 29 30 31 32 33 34 35 36 37 38 39 40 41 42 43 44 45 46 47 48 49 50
000
ASUS44 KMAF 170310
RWRMAF
MIDLAND AREA WEATHER ROUNDUP
NATIONAL WEATHER SERVICE MIDLAND TX
900 PM CST SAT DEC 16 2017

...IN SOUTHWEST TEXAS AND SOUTHEAST NEW MEXICO...

CITY           SKY/WX    TMP DP  RH WIND       PRES   REMARKS
ALPINE         CLOUDY    46  35  66 S10       29.97S
ANDREWS        FAIR      40  36  85 S10       29.85S WCI  34
ARTESIA        CLEAR     50  23  34 SW20G26   29.78S
BIG SPRING     CLEAR     39  36  88 S12       29.91S WCI  32
CARLSBAD       CLEAR     39  27  62 SE6       29.79R WCI  35
DRYDEN           N/A     41  39  93 E5        29.94F WCI  38
FORT STOCKTON  CLEAR     46  39  76 S12       29.89R
GUAD PASS      CLEAR     45  26  47 SW43G54   29.81R WCI  34
HOBBS          CLEAR     37  36  93 SW10      29.82S WCI  30
LAMESA         CLOUDY    39  34  81 S13       29.86S WCI  32
MARFA          NOT AVBL
MIDLAND AIRPK  CLEAR     43  37  80 S13G18    29.88S WCI  36
MIDLAND INTL   CLEAR     42  36  79 S13       29.87S WCI  35
ODESSA         CLEAR     42  36  79 S15       29.87S WCI  34
PECOS          CLEAR     42  35  74 S6        29.85S WCI  39
PRESIDIO       FAIR      49  38  64 N3        29.93S
SEMINOLE       CLEAR     40  36  85 S10       29.84S WCI  33
SNYDER         CLEAR     38  37  97 S9        29.90S WCI  31
WINK           NOT AVBL
$$
...OTHER STATIONS IN TEXAS...

CITY           SKY/WX    TMP DP  RH WIND       PRES   REMARKS
ABILENE        CLOUDY    43  41  93 S9        29.94R WCI  38
AMARILLO       PTCLDY    44  30  57 S17G24    29.80R WCI  36
AUSTIN         LGT RAIN  45  45 100 N5        30.05R FOG
BROWNSVILLE    CLOUDY    51  50  96 NW8       30.06R
CORPUS CHRISTI CLOUDY    47  46  97 N15G22    30.03S
DALLAS FTW     RAIN      45  44  97 SE9       30.02S FOG
DEL RIO        CLOUDY    46  43  89 SE8       30.00S
EL PASO        MOCLDY    47  31  53 SW7       29.87R
HOUSTON INT    RAIN      52  49  89 E14       29.94F FOG
LUBBOCK        PTCLDY    40  36  86 S13       29.83S WCI  32
SAN ANGELO     CLOUDY    44  39  82 S16G22    29.95S WCI  37
SAN ANTONIO    CLOUDY    45  43  93 NE3       30.02F FOG
WACO           HVY RAIN  44  43  96 SE6       30.06R FOG
WICHITA FALLS  MOCLDY    52  28  39 S10       29.89S
$$
...OTHER LOCATIONS IN NEW MEXICO...

CITY           SKY/WX    TMP DP  RH WIND       PRES   REMARKS
ALAMOGORDO     CLEAR     41  19  42 S9        29.87R WCI  35
ALBUQUERQUE    CLOUDY    37  16  42 E7        29.83R WCI  32
CANNON AFB     CLEAR     34  29  84 S7        29.78S WCI  27
CLOVIS         CLEAR     34  27  75 S10       29.78S WCI  26
HOLLOMAN AFB   CLEAR     44  22  42 SE12      29.88R WCI  38
ROSWELL        CLEAR     41  17  38 SW8       29.75R WCI  36
RUIDOSO        CLOUDY    32   9  37 W9        29.85R WCI  24
SANTA FE       CLOUDY    35  15  44 VRB3      29.81R
TRUTH OR CONSE MOCLDY    43  17  35 W5        29.84R
TUCUMCARI      CLEAR     41  15  35 SW5       29.71R WCI  38
$$




USA.gov is the U.S. government's official web portal to all federal, state and local government web resources and services.